This is the latest recevied weather packets stored in our database for station/object WX2NJ. If no packets are shown the sender has not sent any weather packets the latest 10 day(s).
| Time | Temp. | Humidity | Pressure | Rain* | Wind** | Luminosity | Snow |
|---|---|---|---|---|---|---|---|
| 1777935315 | 18.89° C | 51% | 1013.9 hPa | 0 mm | - | 23 W/m² | - |
| 1777935012 | 18.89° C | 49% | 1013.9 hPa | 0 mm | - | 24 W/m² | - |
| 1777934709 | 18.89° C | 49% | 1013.7 hPa | 0 mm | - | 27 W/m² | - |
| 1777934406 | 18.89° C | 49% | 1013.9 hPa | 0 mm | - | 28 W/m² | - |
| 1777934102 | 18.89° C | 48% | 1013.8 hPa | 0 mm | - | 31 W/m² | - |
| 1777933797 | 18.89° C | 47% | 1014 hPa | 0 mm | - | 37 W/m² | - |
| 1777933495 | 18.89° C | 49% | 1013.9 hPa | 0 mm | - | 35 W/m² | - |
| 1777933192 | 18.89° C | 49% | 1014 hPa | 0 mm | - | 39 W/m² | - |
| 1777932889 | 18.89° C | 50% | 1013.8 hPa | 0 mm | - | 35 W/m² | - |
| 1777932587 | 18.89° C | 50% | 1013.8 hPa | 0 mm | - | 51 W/m² | - |
| 1777932283 | 18.89° C | 49% | 1014.1 hPa | 0 mm | - | 55 W/m² | - |
| 1777931980 | 19.44° C | 48% | 1013.9 hPa | 0 mm | - | 48 W/m² | - |
| 1777931676 | 19.44° C | 47% | 1014 hPa | 0 mm | - | 56 W/m² | - |
| 1777931373 | 20° C | 45% | 1014 hPa | 0 mm | - | 119 W/m² | - |
| 1777931070 | 20° C | 45% | 1014 hPa | 0 mm | - | 117 W/m² | - |
| 1777930766 | 20° C | 44% | 1014 hPa | 0 mm | - | 165 W/m² | - |
| 1777930462 | 20° C | 45% | 1013.9 hPa | 0 mm | - | 246 W/m² | - |
| 1777930160 | 20° C | 44% | 1013.9 hPa | 0 mm | - | 215 W/m² | - |
| 1777929855 | 20° C | 43% | 1013.8 hPa | 0 mm | - | 174 W/m² | - |
| 1777929554 | 20.56° C | 43% | 1014.1 hPa | 0 mm | - | 218 W/m² | - |
| 1777929250 | 20.56° C | 44% | 1014 hPa | 0 mm | - | 103 W/m² | - |
| 1777928947 | 20° C | 44% | 1014 hPa | 0 mm | - | 70 W/m² | - |
| 1777928644 | 20° C | 44% | 1013.8 hPa | 0 mm | - | 299 W/m² | - |
| 1777928341 | 20° C | 45% | 1013.9 hPa | 0 mm | - | 347 W/m² | - |
| 1777928039 | 20° C | 44% | 1013.9 hPa | 0 mm | - | 371 W/m² | - |
* Rain latest hour (hover to see other rain measurements)
** Current wind speed in m/s (hover to see current wind gust speed)